Time,TemperatureF,DewpointF,PressureIn,WindDirection,WindDirectionDegrees,WindSpeedMPH,WindSpeedGustMPH,Humidity,HourlyPrecipIn,Conditions,Clouds,dailyrainin,SolarRadiationWatts/m^2,SoftwareType,DateUTC
2013-01-25 00:04:00,55.3,47.2,30.05,WNW,300,2.0,4.0,74,0.00,,,0.00,0,Wunderground v.1.15,2013-01-25 06:04:00,
2013-01-25 00:09:00,55.4,46.9,30.05,WNW,288,3.0,4.0,73,0.00,,,0.00,0,Wunderground v.1.15,2013-01-25 06:09:00,
2013-01-25 00:15:00,55.3,46.4,30.05,West,270,3.0,5.0,72,0.00,,,0.00,0,Wunderground v.1.15,2013-01-25 06:15:00,
2013-01-25 00:20:00,55.2,46.3,30.05,West,276,4.0,6.0,72,0.00,,,0.00,0,Wunderground v.1.15,2013-01-25 06:20:00,
2013-01-25 00:26:00,55.1,46.2,30.05,West,277,3.0,4.0,72,0.00,,,0.00,0,Wunderground v.1.15,2013-01-25 06:26:00,
2013-01-25 00:31:00,54.9,46.0,30.05,WNW,285,3.0,3.0,72,0.00,,,0.00,0,Wunderground v.1.15,2013-01-25 06:31:00,
2013-01-25 00:37:00,54.7,45.8,30.05,WNW,285,3.0,5.0,72,0.00,,,0.00,0,Wunderground v.1.15,2013-01-25 06:37:00,
2013-01-25 00:42:00,54.5,45.7,30.05,WNW,285,2.0,3.0,72,0.00,,,0.00,0,Wunderground v.1.15,2013-01-25 06:42:00,
2013-01-25 00:48:00,54.3,45.5,30.04,WNW,286,3.0,4.0,72,0.00,,,0.00,0,Wunderground v.1.15,2013-01-25 06:48:00,
2013-01-25 00:53:00,54.1,45.6,30.04,WNW,286,2.0,4.0,73,0.00,,,0.00,0,Wunderground v.1.15,2013-01-25 06:53:00,
2013-01-25 00:58:00,53.8,45.3,30.04,WNW,286,2.0,4.0,73,0.00,,,0.00,0,Wunderground v.1.15,2013-01-25 06:58:00,
2013-01-25 01:04:00,53.6,45.2,30.04,WNW,286,2.0,3.0,73,0.00,,,0.00,0,Wunderground v.1.15,2013-01-25 07:04:00,
2013-01-25 01:09:00,53.4,45.0,30.04,WNW,286,2.0,3.0,73,0.00,,,0.00,0,Wunderground v.1.15,2013-01-25 07:09:00,
2013-01-25 01:14:00,53.2,44.8,30.03,WNW,286,1.0,2.0,73,0.00,,,0.00,0,Wunderground v.1.15,2013-01-25 07:14:00,
2013-01-25 01:20:00,53.0,44.9,30.03,WNW,286,0.0,2.0,74,0.00,,,0.00,0,Wunderground v.1.15,2013-01-25 07:20:00,
2013-01-25 01:25:00,52.9,44.8,30.03,WNW,286,0.0,0.0,74,0.00,,,0.00,0,Wunderground v.1.15,2013-01-25 07:25:00,
2013-01-25 01:31:00,52.7,45.0,30.03,WNW,286,0.0,0.0,75,0.00,,,0.00,0,Wunderground v.1.15,2013-01-25 07:31:00,
2013-01-25 01:36:00,52.6,44.9,30.04,WNW,286,0.0,1.0,75,0.00,,,0.00,0,Wunderground v.1.15,2013-01-25 07:36:00,
2013-01-25 01:42:00,52.4,44.7,30.04,WNW,286,0.0,0.0,75,0.00,,,0.00,0,Wunderground v.1.15,2013-01-25 07:42:00,
2013-01-25 01:47:00,52.3,44.6,30.04,WNW,286,0.0,0.0,75,0.00,,,0.00,0,Wunderground v.1.15,2013-01-25 07:47:00,
2013-01-25 01:53:00,52.2,44.9,30.05,WNW,286,0.0,2.0,76,0.00,,,0.00,0,Wunderground v.1.15,2013-01-25 07:53:00,
2013-01-25 01:58:00,52.1,44.8,30.05,WNW,286,1.0,2.0,76,0.00,,,0.00,0,Wunderground v.1.15,2013-01-25 07:58:00,
2013-01-25 02:03:00,52.1,44.8,30.06,WNW,286,2.0,3.0,76,0.00,,,0.00,0,Wunderground v.1.15,2013-01-25 08:03:00,
2013-01-25 02:09:00,52.0,44.7,30.06,WNW,286,2.0,4.0,76,0.00,,,0.00,0,Wunderground v.1.15,2013-01-25 08:09:00,
2013-01-25 02:14:00,51.9,44.6,30.07,WNW,288,2.0,3.0,76,0.00,,,0.00,0,Wunderground v.1.15,2013-01-25 08:14:00,
2013-01-25 02:19:00,51.7,44.4,30.07,WNW,288,2.0,5.0,76,0.00,,,0.00,0,Wunderground v.1.15,2013-01-25 08:19:00,
2013-01-25 02:24:00,51.5,44.5,30.07,WNW,301,3.0,7.0,77,0.00,,,0.00,0,Wunderground v.1.15,2013-01-25 08:24:00,
2013-01-25 02:30:00,51.3,44.3,30.07,WNW,301,3.0,7.0,77,0.00,,,0.00,0,Wunderground v.1.15,2013-01-25 08:30:00,
2013-01-25 02:35:00,51.2,44.6,30.06,WNW,295,2.0,3.0,78,0.00,,,0.00,0,Wunderground v.1.15,2013-01-25 08:35:00,
2013-01-25 02:40:00,50.9,44.6,30.06,WNW,294,2.0,4.0,79,0.00,,,0.00,0,Wunderground v.1.15,2013-01-25 08:40:00,
2013-01-25 02:46:00,50.8,44.9,30.06,WNW,291,2.0,5.0,80,0.00,,,0.00,0,Wunderground v.1.15,2013-01-25 08:46:00,
2013-01-25 02:51:00,50.7,45.1,30.06,WNW,291,1.0,1.0,81,0.00,,,0.00,0,Wunderground v.1.15,2013-01-25 08:51:00,
2013-01-25 02:56:00,50.6,45.3,30.06,WNW,291,1.0,4.0,82,0.00,,,0.00,0,Wunderground v.1.15,2013-01-25 08:56:00,
2013-01-25 03:02:00,50.6,45.3,30.06,WNW,291,0.0,1.0,82,0.00,,,0.00,0,Wunderground v.1.15,2013-01-25 09:02:00,
2013-01-25 03:08:00,50.5,45.5,30.06,WNW,291,1.0,3.0,83,0.00,,,0.00,0,Wunderground v.1.15,2013-01-25 09:08:00,
2013-01-25 03:13:00,50.4,45.7,30.05,WNW,291,1.0,2.0,84,0.00,,,0.00,0,Wunderground v.1.15,2013-01-25 09:13:00,
2013-01-25 03:18:00,50.4,46.1,30.05,WNW,291,1.0,2.0,85,0.00,,,0.00,0,Wunderground v.1.15,2013-01-25 09:18:00,
2013-01-25 03:23:00,50.4,46.1,30.05,WNW,291,0.0,0.0,85,0.00,,,0.00,0,Wunderground v.1.15,2013-01-25 09:23:00,
2013-01-25 03:29:00,50.4,46.1,30.05,WNW,291,0.0,0.0,85,0.00,,,0.00,0,Wunderground v.1.15,2013-01-25 09:29:00,
2013-01-25 03:34:00,50.4,46.4,30.05,WNW,291,0.0,0.0,86,0.00,,,0.00,0,Wunderground v.1.15,2013-01-25 09:34:00,
2013-01-25 03:39:00,50.4,46.4,30.06,WNW,291,0.0,2.0,86,0.00,,,0.00,0,Wunderground v.1.15,2013-01-25 09:39:00,
2013-01-25 03:45:00,50.4,46.4,30.05,WNW,291,1.0,2.0,86,0.00,,,0.00,0,Wunderground v.1.15,2013-01-25 09:45:00,
2013-01-25 03:50:00,50.3,46.6,30.06,WNW,291,2.0,2.0,87,0.00,,,0.00,0,Wunderground v.1.15,2013-01-25 09:50:00,
2013-01-25 03:56:00,50.3,46.6,30.05,WNW,291,2.0,4.0,87,0.00,,,0.00,0,Wunderground v.1.15,2013-01-25 09:56:00,
2013-01-25 04:02:00,50.3,46.6,30.05,WNW,291,0.0,1.0,87,0.00,,,0.00,0,Wunderground v.1.15,2013-01-25 10:02:00,
2013-01-25 04:07:00,50.2,46.5,30.05,WNW,291,1.0,3.0,87,0.00,,,0.00,0,Wunderground v.1.15,2013-01-25 10:07:00,
2013-01-25 04:13:00,50.2,46.5,30.04,WNW,291,1.0,1.0,87,0.00,,,0.00,0,Wunderground v.1.15,2013-01-25 10:13:00,
2013-01-25 04:18:00,50.1,46.4,30.04,WNW,291,0.0,1.0,87,0.00,,,0.00,0,Wunderground v.1.15,2013-01-25 10:18:00,
2013-01-25 04:23:00,50.1,46.4,30.05,WNW,291,1.0,2.0,87,0.00,,,0.00,0,Wunderground v.1.15,2013-01-25 10:23:00,
2013-01-25 04:29:00,50.1,46.4,30.05,WNW,291,1.0,3.0,87,0.00,,,0.00,0,Wunderground v.1.15,2013-01-25 10:29:00,
2013-01-25 04:34:00,50.1,46.4,30.06,WNW,291,1.0,2.0,87,0.00,,,0.00,0,Wunderground v.1.15,2013-01-25 10:34:00,
2013-01-25 04:39:00,50.2,46.5,30.05,WNW,291,1.0,3.0,87,0.00,,,0.00,0,Wunderground v.1.15,2013-01-25 10:39:00,
2013-01-25 04:45:00,50.2,46.5,30.05,WNW,291,1.0,2.0,87,0.00,,,0.00,0,Wunderground v.1.15,2013-01-25 10:45:00,
2013-01-25 04:51:00,50.3,46.6,30.05,WNW,291,1.0,1.0,87,0.00,,,0.00,0,Wunderground v.1.15,2013-01-25 10:51:00,
2013-01-25 04:56:00,50.3,46.9,30.06,WNW,291,2.0,4.0,88,0.00,,,0.00,0,Wunderground v.1.15,2013-01-25 10:56:00,
2013-01-25 05:02:00,50.3,46.9,30.06,WNW,291,1.0,1.0,88,0.00,,,0.00,0,Wunderground v.1.15,2013-01-25 11:02:00,
2013-01-25 05:07:00,50.3,46.9,30.05,WNW,291,1.0,1.0,88,0.00,,,0.00,0,Wunderground v.1.15,2013-01-25 11:07:00,
2013-01-25 05:12:00,50.3,46.9,30.06,WNW,291,0.0,1.0,88,0.00,,,0.00,0,Wunderground v.1.15,2013-01-25 11:12:00,
2013-01-25 05:18:00,50.3,46.9,30.06,WNW,291,1.0,3.0,88,0.00,,,0.00,0,Wunderground v.1.15,2013-01-25 11:18:00,
2013-01-25 05:23:00,50.4,47.0,30.06,WNW,291,1.0,2.0,88,0.00,,,0.00,0,Wunderground v.1.15,2013-01-25 11:23:00,
2013-01-25 05:29:00,50.4,47.0,30.07,WNW,291,1.0,2.0,88,0.00,,,0.00,0,Wunderground v.1.15,2013-01-25 11:29:00,
2013-01-25 05:34:00,50.4,47.3,30.08,WNW,291,1.0,3.0,89,0.00,,,0.00,0,Wunderground v.1.15,2013-01-25 11:34:00,
2013-01-25 05:39:00,50.5,47.4,30.07,WNW,291,2.0,3.0,89,0.00,,,0.00,0,Wunderground v.1.15,2013-01-25 11:39:00,
2013-01-25 05:45:00,50.7,47.6,30.08,WNW,291,2.0,4.0,89,0.00,,,0.00,0,Wunderground v.1.15,2013-01-25 11:45:00,
2013-01-25 05:50:00,50.8,47.7,30.07,WNW,291,2.0,2.0,89,0.00,,,0.00,0,Wunderground v.1.15,2013-01-25 11:50:00,
2013-01-25 05:56:00,51.0,48.2,30.07,WNW,291,1.0,2.0,90,0.00,,,0.00,0,Wunderground v.1.15,2013-01-25 11:56:00,
2013-01-25 06:01:00,51.1,48.3,30.08,WNW,291,1.0,1.0,90,0.00,,,0.00,0,Wunderground v.1.15,2013-01-25 12:01:00,
2013-01-25 06:06:00,51.2,48.4,30.07,WNW,291,2.0,2.0,90,0.00,,,0.00,0,Wunderground v.1.15,2013-01-25 12:06:00,
2013-01-25 06:12:00,51.2,48.4,30.08,WNW,291,2.0,2.0,90,0.00,,,0.00,0,Wunderground v.1.15,2013-01-25 12:12:00,
2013-01-25 06:17:00,51.1,48.6,30.08,WNW,291,2.0,3.0,91,0.00,,,0.00,0,Wunderground v.1.15,2013-01-25 12:17:00,
2013-01-25 06:23:00,51.1,48.6,30.08,WNW,291,1.0,2.0,91,0.00,,,0.00,0,Wunderground v.1.15,2013-01-25 12:23:00,
2013-01-25 06:28:00,51.0,48.5,30.08,WNW,291,1.0,3.0,91,0.00,,,0.00,0,Wunderground v.1.15,2013-01-25 12:28:00,
2013-01-25 06:33:00,51.0,48.5,30.09,WNW,291,1.0,2.0,91,0.00,,,0.00,0,Wunderground v.1.15,2013-01-25 12:33:00,
2013-01-25 06:39:00,50.9,48.4,30.10,WNW,291,1.0,2.0,91,0.00,,,0.00,0,Wunderground v.1.15,2013-01-25 12:39:00,
2013-01-25 06:44:00,50.9,48.4,30.10,WNW,291,1.0,3.0,91,0.00,,,0.00,0,Wunderground v.1.15,2013-01-25 12:44:00,
2013-01-25 06:49:00,50.9,48.7,30.10,WNW,291,1.0,3.0,92,0.00,,,0.00,0,Wunderground v.1.15,2013-01-25 12:49:00,
2013-01-25 06:54:00,50.9,48.7,30.11,WNW,291,1.0,4.0,92,0.00,,,0.00,0,Wunderground v.1.15,2013-01-25 12:54:00,
2013-01-25 07:00:00,50.9,48.7,30.10,WNW,291,1.0,4.0,92,0.00,,,0.00,0,Wunderground v.1.15,2013-01-25 13:00:00,
2013-01-25 07:05:00,51.0,48.8,30.12,WNW,291,1.0,3.0,92,0.00,,,0.00,0,Wunderground v.1.15,2013-01-25 13:05:00,
2013-01-25 07:11:00,51.0,48.8,30.13,North,360,3.0,5.0,92,0.00,,,0.00,0,Wunderground v.1.15,2013-01-25 13:11:00,
2013-01-25 07:17:00,50.6,48.4,30.13,North,349,5.0,8.0,92,0.00,,,0.00,0,Wunderground v.1.15,2013-01-25 13:17:00,
2013-01-25 07:22:00,50.0,47.8,30.14,NNW,345,5.0,6.0,92,0.00,,,0.00,0,Wunderground v.1.15,2013-01-25 13:22:00,
2013-01-25 07:27:00,49.6,47.4,30.14,North,355,4.0,6.0,92,0.00,,,0.00,0,Wunderground v.1.15,2013-01-25 13:27:00,
2013-01-25 07:33:00,49.0,46.8,30.14,North,5,5.0,8.0,92,0.00,,,0.00,0,Wunderground v.1.15,2013-01-25 13:33:00,
2013-01-25 07:38:00,48.7,46.5,30.14,NW,321,5.0,8.0,92,0.00,,,0.00,0,Wunderground v.1.15,2013-01-25 13:38:00,
2013-01-25 07:44:00,48.3,46.1,30.14,NNW,340,4.0,7.0,92,0.00,,,0.00,0,Wunderground v.1.15,2013-01-25 13:44:00,
2013-01-25 07:49:00,48.0,45.8,30.14,NNW,344,4.0,7.0,92,0.00,,,0.00,5,Wunderground v.1.15,2013-01-25 13:49:00,
2013-01-25 07:55:00,47.9,46.0,30.15,North,355,4.0,4.0,93,0.00,,,0.00,9,Wunderground v.1.15,2013-01-25 13:55:00,
2013-01-25 08:01:00,47.8,45.9,30.14,NNE,21,4.0,4.0,93,0.00,,,0.00,14,Wunderground v.1.15,2013-01-25 14:01:00,
2013-01-25 08:07:00,47.7,45.8,30.15,NNE,15,3.0,11.0,93,0.00,,,0.00,18,Wunderground v.1.15,2013-01-25 14:07:00,
2013-01-25 08:12:00,47.7,45.8,30.15,NNW,337,4.0,6.0,93,0.00,,,0.00,14,Wunderground v.1.15,2013-01-25 14:12:00,
2013-01-25 08:17:00,47.7,45.8,30.15,North,360,3.0,6.0,93,0.00,,,0.00,19,Wunderground v.1.15,2013-01-25 14:17:00,
2013-01-25 08:23:00,47.8,45.9,30.15,NNE,13,2.0,3.0,93,0.00,,,0.00,19,Wunderground v.1.15,2013-01-25 14:23:00,
2013-01-25 08:28:00,47.7,45.8,30.15,North,355,2.0,4.0,93,0.00,,,0.00,35,Wunderground v.1.15,2013-01-25 14:28:00,
2013-01-25 08:33:00,47.5,45.6,30.15,NE,35,3.0,3.0,93,0.00,,,0.00,40,Wunderground v.1.15,2013-01-25 14:33:00,
2013-01-25 08:38:00,47.4,45.5,30.16,North,355,3.0,8.0,93,0.00,,,0.00,37,Wunderground v.1.15,2013-01-25 14:38:00,
2013-01-25 08:44:00,47.0,45.1,30.16,North,355,3.0,4.0,93,0.00,,,0.00,37,Wunderground v.1.15,2013-01-25 14:44:00,
2013-01-25 08:49:00,46.8,44.9,30.16,North,355,3.0,6.0,93,0.00,,,0.00,40,Wunderground v.1.15,2013-01-25 14:49:00,
2013-01-25 08:54:00,46.5,44.6,30.16,North,350,3.0,5.0,93,0.00,,,0.00,42,Wunderground v.1.15,2013-01-25 14:54:00,
2013-01-25 09:00:00,46.2,44.3,30.16,NNW,340,4.0,10.0,93,0.00,,,0.00,40,Wunderground v.1.15,2013-01-25 15:00:00,
2013-01-25 09:06:00,46.1,44.2,30.17,NNE,26,3.0,5.0,93,0.00,,,0.00,39,Wunderground v.1.15,2013-01-25 15:06:00,
2013-01-25 09:11:00,46.0,44.1,30.17,NNW,338,3.0,6.0,93,0.00,,,0.00,42,Wunderground v.1.15,2013-01-25 15:11:00,
2013-01-25 09:16:00,45.9,44.0,30.17,North,355,4.0,6.0,93,0.00,,,0.00,69,Wunderground v.1.15,2013-01-25 15:16:00,
2013-01-25 09:22:00,46.0,44.1,30.17,North,11,3.0,7.0,93,0.00,,,0.00,74,Wunderground v.1.15,2013-01-25 15:22:00,
2013-01-25 09:27:00,45.9,44.0,30.17,North,360,3.0,7.0,93,0.00,,,0.00,105,Wunderground v.1.15,2013-01-25 15:27:00,
2013-01-25 09:32:00,46.1,44.2,30.17,North,5,2.0,3.0,93,0.00,,,0.00,137,Wunderground v.1.15,2013-01-25 15:32:00,
2013-01-25 09:38:00,46.3,44.4,30.18,NNE,27,2.0,3.0,93,0.00,,,0.00,156,Wunderground v.1.15,2013-01-25 15:38:00,
2013-01-25 09:43:00,46.7,44.8,30.19,NNE,14,2.0,6.0,93,0.00,,,0.00,127,Wunderground v.1.15,2013-01-25 15:43:00,
2013-01-25 09:48:00,46.8,44.9,30.19,North,360,3.0,6.0,93,0.00,,,0.00,155,Wunderground v.1.15,2013-01-25 15:48:00,
2013-01-25 09:54:00,47.0,45.1,30.19,North,350,3.0,4.0,93,0.00,,,0.00,141,Wunderground v.1.15,2013-01-25 15:54:00,
2013-01-25 09:59:00,47.2,45.3,30.20,NE,42,2.0,8.0,93,0.00,,,0.00,111,Wunderground v.1.15,2013-01-25 15:59:00,
2013-01-25 10:04:00,47.2,45.3,30.21,NNE,18,2.0,8.0,93,0.00,,,0.00,104,Wunderground v.1.15,2013-01-25 16:04:00,
2013-01-25 10:10:00,47.0,45.1,30.21,NNW,329,3.0,8.0,93,0.00,,,0.00,105,Wunderground v.1.15,2013-01-25 16:10:00,
2013-01-25 10:15:00,47.0,44.8,30.21,North,5,4.0,6.0,92,0.00,,,0.00,104,Wunderground v.1.15,2013-01-25 16:15:00,
2013-01-25 10:20:00,47.0,44.8,30.21,North,360,4.0,4.0,92,0.00,,,0.00,121,Wunderground v.1.15,2013-01-25 16:20:00,
2013-01-25 10:26:00,47.0,44.8,30.22,East,81,4.0,5.0,92,0.00,,,0.00,83,Wunderground v.1.15,2013-01-25 16:26:00,
2013-01-25 10:31:00,47.1,44.9,30.21,NNW,346,4.0,6.0,92,0.00,,,0.00,118,Wunderground v.1.15,2013-01-25 16:31:00,
2013-01-25 10:36:00,47.2,44.7,30.21,NNE,32,4.0,7.0,91,0.00,,,0.00,139,Wunderground v.1.15,2013-01-25 16:36:00,
2013-01-25 10:42:00,47.6,45.1,30.20,North,9,3.0,4.0,91,0.00,,,0.00,172,Wunderground v.1.15,2013-01-25 16:42:00,
2013-01-25 10:47:00,47.7,45.2,30.20,North,355,3.0,7.0,91,0.00,,,0.00,207,Wunderground v.1.15,2013-01-25 16:47:00,
2013-01-25 10:53:00,47.7,44.9,30.20,NNW,344,4.0,6.0,90,0.00,,,0.00,174,Wunderground v.1.15,2013-01-25 16:53:00,
2013-01-25 10:58:00,47.6,44.8,30.20,NNE,20,4.0,6.0,90,0.00,,,0.00,109,Wunderground v.1.15,2013-01-25 16:58:00,
2013-01-25 11:03:00,47.3,44.2,30.20,North,5,4.0,6.0,89,0.00,,,0.00,95,Wunderground v.1.15,2013-01-25 17:03:00,
2013-01-25 11:09:00,47.3,44.2,30.20,North,355,3.0,6.0,89,0.00,,,0.00,123,Wunderground v.1.15,2013-01-25 17:09:00,
2013-01-25 11:14:00,47.0,43.9,30.20,NNW,345,4.0,5.0,89,0.00,,,0.00,98,Wunderground v.1.15,2013-01-25 17:14:00,
2013-01-25 11:19:00,46.9,43.8,30.20,North,349,4.0,7.0,89,0.00,,,0.00,141,Wunderground v.1.15,2013-01-25 17:19:00,
2013-01-25 11:25:00,46.7,43.3,30.21,North,349,4.0,4.0,88,0.00,,,0.00,134,Wunderground v.1.15,2013-01-25 17:25:00,
2013-01-25 11:30:00,46.7,43.3,30.21,North,355,4.0,6.0,88,0.00,,,0.00,156,Wunderground v.1.15,2013-01-25 17:30:00,
2013-01-25 11:35:00,46.2,42.8,30.20,NNE,31,5.0,9.0,88,0.00,,,0.00,156,Wunderground v.1.15,2013-01-25 17:35:00,
2013-01-25 11:41:00,46.2,42.8,30.20,NE,42,5.0,5.0,88,0.00,,,0.00,181,Wunderground v.1.15,2013-01-25 17:41:00,
2013-01-25 11:46:00,46.2,42.8,30.20,North,351,4.0,6.0,88,0.00,,,0.00,167,Wunderground v.1.15,2013-01-25 17:46:00,
2013-01-25 11:51:00,46.3,42.9,30.20,North,5,4.0,6.0,88,0.00,,,0.00,172,Wunderground v.1.15,2013-01-25 17:51:00,
2013-01-25 11:56:00,46.3,42.6,30.20,North,349,4.0,9.0,87,0.00,,,0.00,188,Wunderground v.1.15,2013-01-25 17:56:00,
2013-01-25 12:02:00,46.3,42.6,30.19,NNW,340,3.0,5.0,87,0.00,,,0.00,193,Wunderground v.1.15,2013-01-25 18:02:00,
2013-01-25 12:07:00,46.5,42.8,30.19,NW,326,3.0,5.0,87,0.00,,,0.00,195,Wunderground v.1.15,2013-01-25 18:07:00,
2013-01-25 12:12:00,46.8,42.8,30.19,North,5,4.0,5.0,86,0.00,,,0.00,190,Wunderground v.1.15,2013-01-25 18:12:00,
2013-01-25 12:18:00,46.7,42.7,30.18,North,355,4.0,8.0,86,0.00,,,0.00,163,Wunderground v.1.15,2013-01-25 18:18:00,
2013-01-25 12:23:00,46.7,42.7,30.18,North,11,4.0,6.0,86,0.00,,,0.00,211,Wunderground v.1.15,2013-01-25 18:23:00,
2013-01-25 12:28:00,46.7,42.7,30.18,NNE,33,4.0,6.0,86,0.00,,,0.00,264,Wunderground v.1.15,2013-01-25 18:28:00,
2013-01-25 12:33:00,47.0,42.7,30.18,North,5,3.0,4.0,85,0.00,,,0.00,225,Wunderground v.1.15,2013-01-25 18:33:00,
2013-01-25 12:38:00,47.1,42.8,30.17,North,5,3.0,7.0,85,0.00,,,0.00,258,Wunderground v.1.15,2013-01-25 18:38:00,
2013-01-25 12:44:00,47.8,43.5,30.17,North,350,3.0,4.0,85,0.00,,,0.00,225,Wunderground v.1.15,2013-01-25 18:44:00,
2013-01-25 12:49:00,48.0,43.4,30.17,NNE,23,3.0,5.0,84,0.00,,,0.00,350,Wunderground v.1.15,2013-01-25 18:49:00,
2013-01-25 12:55:00,48.5,43.6,30.17,East,94,3.0,4.0,83,0.00,,,0.00,308,Wunderground v.1.15,2013-01-25 18:55:00,
2013-01-25 13:00:00,48.5,43.3,30.17,NNE,24,3.0,7.0,82,0.00,,,0.00,320,Wunderground v.1.15,2013-01-25 19:00:00,
2013-01-25 13:06:00,48.9,43.3,30.17,NNE,26,3.0,5.0,81,0.00,,,0.00,306,Wunderground v.1.15,2013-01-25 19:06:00,
2013-01-25 13:11:00,49.3,43.4,30.17,North,5,2.0,2.0,80,0.00,,,0.00,248,Wunderground v.1.15,2013-01-25 19:11:00,
2013-01-25 13:16:00,49.4,43.2,30.17,NNE,13,3.0,5.0,79,0.00,,,0.00,396,Wunderground v.1.15,2013-01-25 19:16:00,
2013-01-25 13:22:00,49.7,43.5,30.17,NNW,344,3.0,4.0,79,0.00,,,0.00,325,Wunderground v.1.15,2013-01-25 19:22:00,
2013-01-25 13:27:00,49.9,43.6,30.16,North,360,3.0,5.0,79,0.00,,,0.00,287,Wunderground v.1.15,2013-01-25 19:27:00,
2013-01-25 13:32:00,50.2,43.6,30.16,NNW,341,2.0,6.0,78,0.00,,,0.00,308,Wunderground v.1.15,2013-01-25 19:32:00,
2013-01-25 13:38:00,50.5,43.9,30.16,North,355,2.0,8.0,78,0.00,,,0.00,253,Wunderground v.1.15,2013-01-25 19:38:00,
2013-01-25 13:43:00,50.1,43.2,30.16,NNE,12,3.0,5.0,77,0.00,,,0.00,250,Wunderground v.1.15,2013-01-25 19:43:00,
2013-01-25 13:49:00,50.3,43.7,30.17,NW,308,3.0,5.0,78,0.00,,,0.00,253,Wunderground v.1.15,2013-01-25 19:49:00,
2013-01-25 13:54:00,50.6,43.7,30.17,NW,309,3.0,6.0,77,0.00,,,0.00,229,Wunderground v.1.15,2013-01-25 19:54:00,
2013-01-25 14:01:00,50.7,43.4,30.17,NNE,24,3.0,3.0,76,0.00,,,0.00,246,Wunderground v.1.15,2013-01-25 20:01:00,
2013-01-25 14:06:00,50.6,43.3,30.17,North,9,3.0,6.0,76,0.00,,,0.00,230,Wunderground v.1.15,2013-01-25 20:06:00,
2013-01-25 14:12:00,50.7,43.4,30.16,North,11,3.0,3.0,76,0.00,,,0.00,244,Wunderground v.1.15,2013-01-25 20:12:00,
2013-01-25 14:17:00,51.0,43.7,30.16,WNW,294,2.0,5.0,76,0.00,,,0.00,306,Wunderground v.1.15,2013-01-25 20:17:00,
2013-01-25 14:22:00,51.8,44.1,30.16,NW,311,2.0,4.0,75,0.00,,,0.00,288,Wunderground v.1.15,2013-01-25 20:22:00,
2013-01-25 14:28:00,52.1,44.1,30.16,WNW,288,3.0,5.0,74,0.00,,,0.00,302,Wunderground v.1.15,2013-01-25 20:28:00,
2013-01-25 14:33:00,52.2,43.8,30.16,NNW,344,3.0,5.0,73,0.00,,,0.00,294,Wunderground v.1.15,2013-01-25 20:33:00,
2013-01-25 14:38:00,52.1,43.3,30.16,NNW,342,4.0,8.0,72,0.00,,,0.00,304,Wunderground v.1.15,2013-01-25 20:38:00,
2013-01-25 14:44:00,51.8,43.4,30.16,North,5,4.0,6.0,73,0.00,,,0.00,353,Wunderground v.1.15,2013-01-25 20:44:00,
2013-01-25 14:49:00,51.9,43.5,30.16,North,351,4.0,6.0,73,0.00,,,0.00,348,Wunderground v.1.15,2013-01-25 20:49:00,
2013-01-25 14:54:00,52.2,43.4,30.16,WNW,302,4.0,5.0,72,0.00,,,0.00,250,Wunderground v.1.15,2013-01-25 20:54:00,
2013-01-25 15:00:00,52.2,43.4,30.16,NW,318,3.0,7.0,72,0.00,,,0.00,207,Wunderground v.1.15,2013-01-25 21:00:00,
2013-01-25 15:05:00,52.2,43.4,30.16,NNW,327,3.0,6.0,72,0.00,,,0.00,192,Wunderground v.1.15,2013-01-25 21:05:00,
2013-01-25 15:10:00,52.1,43.3,30.16,NNW,342,3.0,4.0,72,0.00,,,0.00,183,Wunderground v.1.15,2013-01-25 21:10:00,
2013-01-25 15:16:00,52.1,43.3,30.16,NNE,13,3.0,4.0,72,0.00,,,0.00,167,Wunderground v.1.15,2013-01-25 21:16:00,
2013-01-25 15:22:00,51.8,43.1,30.16,NNW,340,3.0,5.0,72,0.00,,,0.00,148,Wunderground v.1.15,2013-01-25 21:22:00,
2013-01-25 15:27:00,51.5,42.8,30.16,North,351,3.0,6.0,72,0.00,,,0.00,153,Wunderground v.1.15,2013-01-25 21:27:00,
2013-01-25 15:32:00,51.3,42.9,30.16,North,350,3.0,3.0,73,0.00,,,0.00,67,Wunderground v.1.15,2013-01-25 21:32:00,
2013-01-25 15:37:00,51.0,42.6,30.16,NNW,341,2.0,5.0,73,0.00,,,0.00,77,Wunderground v.1.15,2013-01-25 21:37:00,
2013-01-25 15:43:00,50.8,42.5,30.16,NNW,327,3.0,3.0,73,0.00,,,0.00,90,Wunderground v.1.15,2013-01-25 21:43:00,
2013-01-25 15:48:00,50.5,42.5,30.17,NNW,336,3.0,4.0,74,0.00,,,0.00,49,Wunderground v.1.15,2013-01-25 21:48:00,
2013-01-25 15:54:00,50.3,42.3,30.17,North,355,3.0,3.0,74,0.00,,,0.00,69,Wunderground v.1.15,2013-01-25 21:54:00,
2013-01-25 15:59:00,50.3,42.7,30.17,North,351,2.0,9.0,75,0.00,,,0.00,67,Wunderground v.1.15,2013-01-25 21:59:00,
2013-01-25 16:04:00,50.3,42.7,30.17,NNW,332,2.0,3.0,75,0.00,,,0.00,67,Wunderground v.1.15,2013-01-25 22:04:00,
2013-01-25 16:10:00,50.3,42.7,30.17,NNW,332,3.0,5.0,75,0.00,,,0.00,74,Wunderground v.1.15,2013-01-25 22:10:00,
2013-01-25 16:15:00,50.2,42.6,30.17,NNW,339,3.0,5.0,75,0.00,,,0.00,70,Wunderground v.1.15,2013-01-25 22:15:00,
2013-01-25 16:20:00,50.1,42.5,30.17,NNW,332,3.0,3.0,75,0.00,,,0.00,53,Wunderground v.1.15,2013-01-25 22:20:00,
2013-01-25 16:26:00,50.0,42.4,30.17,NNW,334,3.0,5.0,75,0.00,,,0.00,40,Wunderground v.1.15,2013-01-25 22:26:00,
2013-01-25 16:31:00,49.8,42.2,30.17,North,349,3.0,3.0,75,0.00,,,0.00,25,Wunderground v.1.15,2013-01-25 22:31:00,
2013-01-25 16:36:00,49.8,42.2,30.17,NNW,347,3.0,4.0,75,0.00,,,0.00,37,Wunderground v.1.15,2013-01-25 22:36:00,
2013-01-25 16:42:00,49.7,42.1,30.17,NNW,341,3.0,3.0,75,0.00,,,0.00,30,Wunderground v.1.15,2013-01-25 22:42:00,
2013-01-25 16:47:00,49.7,42.1,30.17,North,355,3.0,3.0,75,0.00,,,0.00,26,Wunderground v.1.15,2013-01-25 22:47:00,
2013-01-25 16:52:00,49.8,42.2,30.17,NNE,28,2.0,3.0,75,0.00,,,0.00,26,Wunderground v.1.15,2013-01-25 22:52:00,
2013-01-25 16:58:00,49.9,42.3,30.17,NNE,24,1.0,3.0,75,0.00,,,0.00,32,Wunderground v.1.15,2013-01-25 22:58:00,
2013-01-25 17:03:00,49.9,42.3,30.17,North,11,1.0,1.0,75,0.00,,,0.00,25,Wunderground v.1.15,2013-01-25 23:03:00,
2013-01-25 17:09:00,50.0,42.4,30.17,NNW,348,2.0,7.0,75,0.00,,,0.00,33,Wunderground v.1.15,2013-01-25 23:09:00,
2013-01-25 17:14:00,50.0,42.4,30.17,North,355,3.0,6.0,75,0.00,,,0.00,28,Wunderground v.1.15,2013-01-25 23:14:00,
2013-01-25 17:19:00,49.9,42.3,30.17,NE,37,3.0,6.0,75,0.00,,,0.00,26,Wunderground v.1.15,2013-01-25 23:19:00,
2013-01-25 17:24:00,49.9,42.3,30.17,North,5,2.0,6.0,75,0.00,,,0.00,28,Wunderground v.1.15,2013-01-25 23:24:00,
2013-01-25 17:30:00,50.0,42.4,30.17,NNW,345,2.0,6.0,75,0.00,,,0.00,26,Wunderground v.1.15,2013-01-25 23:30:00,
2013-01-25 17:35:00,50.1,42.1,30.16,North,355,2.0,6.0,74,0.00,,,0.00,12,Wunderground v.1.15,2013-01-25 23:35:00,
2013-01-25 17:41:00,50.1,42.1,30.16,North,5,2.0,2.0,74,0.00,,,0.00,9,Wunderground v.1.15,2013-01-25 23:41:00,
2013-01-25 17:46:00,50.1,41.8,30.17,North,9,2.0,5.0,73,0.00,,,0.00,5,Wunderground v.1.15,2013-01-25 23:46:00,
2013-01-25 17:51:00,50.1,41.8,30.17,NNE,15,3.0,3.0,73,0.00,,,0.00,0,Wunderground v.1.15,2013-01-25 23:51:00,
2013-01-25 17:56:00,50.1,41.8,30.17,North,360,2.0,5.0,73,0.00,,,0.00,0,Wunderground v.1.15,2013-01-25 23:56:00,
2013-01-25 18:02:00,50.1,41.8,30.17,North,5,2.0,2.0,73,0.00,,,0.00,0,Wunderground v.1.15,2013-01-26 00:02:00,
2013-01-25 18:07:00,50.0,41.7,30.17,North,355,3.0,5.0,73,0.00,,,0.00,0,Wunderground v.1.15,2013-01-26 00:07:00,
2013-01-25 18:12:00,49.9,41.6,30.17,North,5,4.0,5.0,73,0.00,,,0.00,0,Wunderground v.1.15,2013-01-26 00:12:00,
2013-01-25 18:18:00,49.9,41.6,30.17,NNW,347,3.0,5.0,73,0.00,,,0.00,0,Wunderground v.1.15,2013-01-26 00:18:00,
2013-01-25 18:23:00,49.8,41.5,30.18,NNW,346,3.0,3.0,73,0.00,,,0.00,0,Wunderground v.1.15,2013-01-26 00:23:00,
2013-01-25 18:29:00,49.8,41.5,30.18,North,355,1.0,3.0,73,0.00,,,0.00,0,Wunderground v.1.15,2013-01-26 00:29:00,
2013-01-25 18:34:00,49.8,41.5,30.18,North,355,1.0,1.0,73,0.00,,,0.00,0,Wunderground v.1.15,2013-01-26 00:34:00,
2013-01-25 18:40:00,49.8,41.5,30.18,North,355,0.0,1.0,73,0.00,,,0.00,0,Wunderground v.1.15,2013-01-26 00:40:00,
2013-01-25 18:45:00,49.7,41.0,30.18,NNE,13,1.0,3.0,72,0.00,,,0.00,0,Wunderground v.1.15,2013-01-26 00:45:00,
2013-01-25 18:50:00,49.7,41.0,30.18,NNE,32,1.0,1.0,72,0.00,,,0.00,0,Wunderground v.1.15,2013-01-26 00:50:00,
2013-01-25 18:56:00,49.7,41.0,30.17,NNE,14,1.0,1.0,72,0.00,,,0.00,0,Wunderground v.1.15,2013-01-26 00:56:00,
2013-01-25 19:01:00,49.7,41.0,30.17,North,11,1.0,4.0,72,0.00,,,0.00,0,Wunderground v.1.15,2013-01-26 01:01:00,
2013-01-25 19:06:00,49.6,40.9,30.17,North,5,2.0,5.0,72,0.00,,,0.00,0,Wunderground v.1.15,2013-01-26 01:06:00,
2013-01-25 19:11:00,49.5,40.8,30.17,NNE,13,2.0,5.0,72,0.00,,,0.00,0,Wunderground v.1.15,2013-01-26 01:11:00,
2013-01-25 19:17:00,49.4,40.7,30.17,North,10,2.0,5.0,72,0.00,,,0.00,0,Wunderground v.1.15,2013-01-26 01:17:00,
2013-01-25 19:22:00,49.4,40.7,30.17,North,10,1.0,3.0,72,0.00,,,0.00,0,Wunderground v.1.15,2013-01-26 01:22:00,
2013-01-25 19:27:00,49.4,40.7,30.17,North,355,1.0,4.0,72,0.00,,,0.00,0,Wunderground v.1.15,2013-01-26 01:27:00,
2013-01-25 19:33:00,49.3,40.3,30.17,North,360,2.0,3.0,71,0.00,,,0.00,0,Wunderground v.1.15,2013-01-26 01:33:00,
2013-01-25 19:38:00,49.3,40.3,30.17,North,5,3.0,6.0,71,0.00,,,0.00,0,Wunderground v.1.15,2013-01-26 01:38:00,
2013-01-25 19:43:00,49.2,40.2,30.18,NNE,33,3.0,6.0,71,0.00,,,0.00,0,Wunderground v.1.15,2013-01-26 01:43:00,
2013-01-25 19:48:00,49.2,40.2,30.18,NNE,24,2.0,6.0,71,0.00,,,0.00,0,Wunderground v.1.15,2013-01-26 01:48:00,
2013-01-25 19:54:00,49.2,40.2,30.18,North,360,2.0,4.0,71,0.00,,,0.00,0,Wunderground v.1.15,2013-01-26 01:54:00,
2013-01-25 19:59:00,49.1,40.1,30.18,North,360,2.0,4.0,71,0.00,,,0.00,0,Wunderground v.1.15,2013-01-26 01:59:00,
2013-01-25 20:05:00,49.1,40.1,30.18,North,10,2.0,4.0,71,0.00,,,0.00,0,Wunderground v.1.15,2013-01-26 02:05:00,
2013-01-25 20:10:00,49.0,39.6,30.18,North,350,3.0,4.0,70,0.00,,,0.00,0,Wunderground v.1.15,2013-01-26 02:10:00,
2013-01-25 20:15:00,49.0,40.0,30.18,North,350,2.0,3.0,71,0.00,,,0.00,0,Wunderground v.1.15,2013-01-26 02:15:00,
2013-01-25 20:21:00,48.9,39.5,30.18,North,355,2.0,3.0,70,0.00,,,0.00,0,Wunderground v.1.15,2013-01-26 02:21:00,
2013-01-25 20:26:00,48.8,39.8,30.18,NNE,23,3.0,3.0,71,0.00,,,0.00,0,Wunderground v.1.15,2013-01-26 02:26:00,
2013-01-25 20:32:00,48.8,39.8,30.18,North,5,2.0,2.0,71,0.00,,,0.00,0,Wunderground v.1.15,2013-01-26 02:32:00,
2013-01-25 20:37:00,48.8,39.8,30.18,North,355,2.0,3.0,71,0.00,,,0.00,0,Wunderground v.1.15,2013-01-26 02:37:00,
2013-01-25 20:42:00,48.8,39.8,30.19,North,5,2.0,3.0,71,0.00,,,0.00,0,Wunderground v.1.15,2013-01-26 02:42:00,
2013-01-25 20:48:00,48.7,39.4,30.19,NNW,346,2.0,4.0,70,0.00,,,0.00,0,Wunderground v.1.15,2013-01-26 02:48:00,
2013-01-25 20:53:00,48.7,39.7,30.19,North,360,2.0,2.0,71,0.00,,,0.00,0,Wunderground v.1.15,2013-01-26 02:53:00,
2013-01-25 20:58:00,48.7,39.7,30.18,North,360,1.0,5.0,71,0.00,,,0.00,0,Wunderground v.1.15,2013-01-26 02:58:00,
2013-01-25 21:04:00,48.7,39.7,30.18,North,360,1.0,3.0,71,0.00,,,0.00,0,Wunderground v.1.15,2013-01-26 03:04:00,
2013-01-25 21:09:00,48.7,39.7,30.18,North,360,2.0,3.0,71,0.00,,,0.00,0,Wunderground v.1.15,2013-01-26 03:09:00,
2013-01-25 21:14:00,48.7,39.7,30.19,North,5,2.0,3.0,71,0.00,,,0.00,0,Wunderground v.1.15,2013-01-26 03:14:00,
2013-01-25 21:19:00,48.6,39.6,30.19,North,5,2.0,3.0,71,0.00,,,0.00,0,Wunderground v.1.15,2013-01-26 03:19:00,
2013-01-25 21:25:00,48.7,39.7,30.19,North,355,2.0,2.0,71,0.00,,,0.00,0,Wunderground v.1.15,2013-01-26 03:25:00,
2013-01-25 21:30:00,48.7,39.7,30.19,NNE,24,2.0,2.0,71,0.00,,,0.00,0,Wunderground v.1.15,2013-01-26 03:30:00,
2013-01-25 21:35:00,48.8,39.8,30.19,NNE,19,2.0,3.0,71,0.00,,,0.00,0,Wunderground v.1.15,2013-01-26 03:35:00,
2013-01-25 21:41:00,48.8,39.8,30.19,North,5,2.0,3.0,71,0.00,,,0.00,0,Wunderground v.1.15,2013-01-26 03:41:00,
2013-01-25 21:46:00,48.8,39.8,30.19,North,5,2.0,3.0,71,0.00,,,0.00,0,Wunderground v.1.15,2013-01-26 03:46:00,
2013-01-25 21:51:00,48.8,39.8,30.19,North,5,1.0,2.0,71,0.00,,,0.00,0,Wunderground v.1.15,2013-01-26 03:51:00,
2013-01-25 21:57:00,48.7,39.7,30.19,North,5,1.0,4.0,71,0.00,,,0.00,0,Wunderground v.1.15,2013-01-26 03:57:00,
2013-01-25 22:02:00,48.7,39.7,30.19,North,5,1.0,2.0,71,0.00,,,0.00,0,Wunderground v.1.15,2013-01-26 04:02:00,
2013-01-25 22:07:00,48.7,39.7,30.19,North,5,1.0,3.0,71,0.00,,,0.00,0,Wunderground v.1.15,2013-01-26 04:07:00,
2013-01-25 22:13:00,48.7,40.1,30.19,North,5,2.0,2.0,72,0.00,,,0.00,0,Wunderground v.1.15,2013-01-26 04:13:00,
2013-01-25 22:18:00,48.7,40.1,30.20,North,9,1.0,2.0,72,0.00,,,0.00,0,Wunderground v.1.15,2013-01-26 04:18:00,
2013-01-25 22:24:00,48.7,40.1,30.20,North,5,1.0,3.0,72,0.00,,,0.00,0,Wunderground v.1.15,2013-01-26 04:24:00,
2013-01-25 22:29:00,48.8,40.2,30.19,North,5,1.0,3.0,72,0.00,,,0.00,0,Wunderground v.1.15,2013-01-26 04:29:00,
2013-01-25 22:34:00,48.8,40.2,30.19,North,5,0.0,1.0,72,0.00,,,0.00,0,Wunderground v.1.15,2013-01-26 04:34:00,
2013-01-25 22:39:00,48.8,40.2,30.19,ENE,59,1.0,3.0,72,0.00,,,0.00,0,Wunderground v.1.15,2013-01-26 04:39:00,
2013-01-25 22:44:00,48.8,40.2,30.20,NNE,16,1.0,3.0,72,0.00,,,0.00,0,Wunderground v.1.15,2013-01-26 04:44:00,
2013-01-25 22:50:00,48.8,40.2,30.20,ENE,69,1.0,3.0,72,0.00,,,0.00,0,Wunderground v.1.15,2013-01-26 04:50:00,
2013-01-25 22:55:00,48.8,39.8,30.20,NNE,12,1.0,3.0,71,0.00,,,0.00,0,Wunderground v.1.15,2013-01-26 04:55:00,
2013-01-25 23:01:00,48.7,39.7,30.20,North,5,1.0,2.0,71,0.00,,,0.00,0,Wunderground v.1.15,2013-01-26 05:01:00,
2013-01-25 23:02:00,48.7,39.7,30.21,North,5,1.0,2.0,71,0.00,,,0.00,0,Wunderground v.1.15,2013-01-26 05:02:00,
2013-01-25 23:03:00,48.7,39.7,30.20,NNE,22,1.0,3.0,71,0.00,,,0.00,0,Wunderground v.1.15,2013-01-26 05:03:00,
2013-01-25 23:07:00,48.6,39.6,30.20,NNE,21,1.0,3.0,71,0.00,,,0.00,0,Wunderground v.1.15,2013-01-26 05:07:00,
2013-01-25 23:12:00,48.6,39.6,30.20,NNE,21,1.0,1.0,71,0.00,,,0.00,0,Wunderground v.1.15,2013-01-26 05:12:00,
2013-01-25 23:17:00,48.6,40.0,30.20,NE,51,0.0,2.0,72,0.00,,,0.00,0,Wunderground v.1.15,2013-01-26 05:17:00,
2013-01-25 23:22:00,48.5,39.5,30.21,North,5,1.0,2.0,71,0.00,,,0.00,0,Wunderground v.1.15,2013-01-26 05:22:00,
2013-01-25 23:28:00,48.5,39.9,30.22,NNW,341,1.0,5.0,72,0.00,,,0.00,0,Wunderground v.1.15,2013-01-26 05:28:00,
2013-01-25 23:33:00,48.5,39.5,30.22,North,350,2.0,4.0,71,0.00,,,0.00,0,Wunderground v.1.15,2013-01-26 05:33:00,
2013-01-25 23:38:00,48.4,39.4,30.22,North,355,2.0,5.0,71,0.00,,,0.00,0,Wunderground v.1.15,2013-01-26 05:38:00,
2013-01-25 23:44:00,48.5,39.9,30.22,North,355,1.0,2.0,72,0.00,,,0.00,0,Wunderground v.1.15,2013-01-26 05:44:00,
2013-01-25 23:49:00,48.5,39.9,30.23,North,355,1.0,3.0,72,0.00,,,0.00,0,Wunderground v.1.15,2013-01-26 05:49:00,
2013-01-25 23:54:00,48.5,39.9,30.22,North,350,2.0,3.0,72,0.00,,,0.00,0,Wunderground v.1.15,2013-01-26 05:54:00,